Weather History for Erwin, NC

Change the Weather History Date:

Tuesday, September 11, 2012

  Actual Average Record
Temperature  
Mean Temperature 66 °F -  
Max Temperature 80 °F 84 °F 100 °F (2007)
Min Temperature 53 °F 61 °F 42 °F (1976)
Cooling Degree Days 2    
Growing Degree Days 16 (Base 50)    
Moisture  
Dew Point 51 °F    
Average Humidity 64    
Maximum Humidity 100    
Minimum Humidity 32    
Precipitation  
Precipitation 0.00 in - - ()
Sea Level Pressure  
Sea Level Pressure 30.26 in    
Wind  
Wind Speed 2 mph (NE)    
Max Wind Speed 9 mph    
Max Gust Speed -    
Visibility 10 miles    
Events      
Averages and records for this station are not official NWS values.
T = Trace of Precipitation, MM = Missing Value Source: NWS Daily Summary

Daily Weather History Graph

Daily Weather History Graph

Search for Another Location

Airport:

Trip Planner

Search our weather history database for the weather conditions in past years. The results will help you decide how hot, cold, wet, or windy it might be!

Date:

Astronomy

Sep. 11, 2012 Rise Set
Actual Time 6:55 AM EDT 7:27 PM EDT
Civil Twilight 6:29 AM EDT 7:52 PM EDT
Nautical Twilight 5:59 AM EDT 8:22 PM EDT
Astronomical Twilight 5:28 AM EDT 8:53 PM EDT
Moon 2:18 AM EDT (9/11) 4:29 PM EDT (9/11)
Length of Visible Light 13h 23m
Length of Day
12h 32m
Waning Crescent, 21% of the Moon is Illuminated
Sep 11
Waning Crescent
Sep 15
New
Sep 22
First Quarter
Sep 29
Full
Oct 8
Last Quarter

Hourly Weather History & Observations

Time (EDT) Temp. Dew Point Humidity Pressure Visibility Wind Dir Wind Speed Gust Speed Precip Events Conditions
12:15 AM 59.0 °F 57.2 °F 94% 30.18 in 10.0 mi Calm Calm - N/A   Clear
12:35 AM 59.0 °F 57.2 °F 94% 30.18 in 10.0 mi Calm Calm - N/A   Clear
12:55 AM 59.0 °F 57.2 °F 94% 30.18 in 10.0 mi Calm Calm - N/A   Clear
1:15 AM 57.2 °F 55.4 °F 94% 30.18 in 10.0 mi Calm Calm - N/A   Clear
1:35 AM 57.2 °F 55.4 °F 94% 30.18 in 10.0 mi Calm Calm - N/A   Clear
1:55 AM 55.4 °F 55.4 °F 100% 30.18 in 10.0 mi Calm Calm - N/A   Clear
2:15 AM 55.4 °F 55.4 °F 100% 30.19 in 10.0 mi Calm Calm - N/A   Clear
2:35 AM 55.4 °F 55.4 °F 100% 30.19 in 10.0 mi Calm Calm - N/A   Clear
2:55 AM 55.4 °F 55.4 °F 100% 30.19 in 10.0 mi Calm Calm - N/A   Clear
3:15 AM 55.4 °F 55.4 °F 100% 30.19 in 10.0 mi Calm Calm - N/A   Clear
3:35 AM 55.4 °F 55.4 °F 100% 30.19 in 10.0 mi Calm Calm - N/A   Clear
3:55 AM 53.6 °F 53.6 °F 100% 30.19 in 10.0 mi Calm Calm - N/A   Clear
4:15 AM 55.4 °F 55.4 °F 100% 30.20 in 10.0 mi Calm Calm - N/A   Clear
4:35 AM 53.6 °F 53.6 °F 100% 30.20 in 10.0 mi North 3.5 mph - N/A   Clear
4:55 AM 53.6 °F 53.6 °F 100% 30.21 in 10.0 mi Calm Calm - N/A   Clear
5:15 AM 55.4 °F 53.6 °F 94% 30.21 in 10.0 mi Calm Calm - N/A   Clear
5:35 AM 55.4 °F 53.6 °F 94% 30.22 in 10.0 mi Calm Calm - N/A   Clear
5:55 AM 55.4 °F 53.6 °F 94% 30.22 in 10.0 mi NNE 3.5 mph - N/A   Clear
6:15 AM 55.4 °F 53.6 °F 94% 30.23 in 10.0 mi Calm Calm - N/A   Clear
6:35 AM 53.6 °F 53.6 °F 100% 30.24 in 10.0 mi Calm Calm - N/A   Clear
6:55 AM 53.6 °F 53.6 °F 100% 30.25 in 10.0 mi Calm Calm - N/A   Clear
7:15 AM 53.6 °F 53.6 °F 100% 30.26 in 10.0 mi Calm Calm - N/A   Clear
7:35 AM 55.4 °F 53.6 °F 94% 30.27 in 10.0 mi Calm Calm - N/A   Clear
7:55 AM 57.2 °F 55.4 °F 94% 30.28 in 10.0 mi Calm Calm - N/A   Clear
8:15 AM 59.0 °F 53.6 °F 82% 30.28 in 10.0 mi Calm Calm - N/A   Clear
8:35 AM 62.6 °F 51.8 °F 68% 30.28 in 10.0 mi NNE 4.6 mph - N/A   Clear
8:55 AM 64.4 °F 51.8 °F 64% 30.29 in 10.0 mi NE 5.8 mph - N/A   Clear
9:15 AM 66.2 °F 51.8 °F 60% 30.29 in 10.0 mi NE 5.8 mph - N/A   Clear
9:35 AM 68.0 °F 51.8 °F 56% 30.30 in 10.0 mi ENE 4.6 mph - N/A   Clear
9:55 AM 69.8 °F 50.0 °F 49% 30.30 in 10.0 mi ENE 6.9 mph - N/A   Clear
10:15 AM 71.6 °F 50.0 °F 46% 30.31 in 10.0 mi NE 5.8 mph - N/A   Clear
10:35 AM 73.4 °F 48.2 °F 41% 30.31 in 10.0 mi East 9.2 mph - N/A   Clear
10:55 AM 75.2 °F 46.4 °F 36% 30.31 in 10.0 mi East 5.8 mph - N/A   Clear
11:15 AM 75.2 °F 46.4 °F 36% 30.31 in 10.0 mi NE 8.1 mph - N/A   Clear
11:35 AM 75.2 °F 44.6 °F 34% 30.31 in 10.0 mi ENE 6.9 mph - N/A   Clear
11:55 AM 77.0 °F 44.6 °F 32% 30.31 in 10.0 mi NNE 4.6 mph - N/A   Clear
12:15 PM 77.0 °F 46.4 °F 34% 30.31 in 10.0 mi ENE 5.8 mph - N/A   Clear
12:35 PM 77.0 °F 46.4 °F 34% 30.31 in 10.0 mi North 4.6 mph - N/A   Clear
12:55 PM 77.0 °F 46.4 °F 34% 30.30 in 10.0 mi North 3.5 mph - N/A   Clear
1:15 PM 77.0 °F 46.4 °F 34% 30.30 in 10.0 mi North 3.5 mph - N/A   Clear
1:35 PM 77.0 °F 44.6 °F 32% 30.30 in 10.0 mi Calm Calm - N/A   Clear
1:55 PM 78.8 °F 46.4 °F 32% 30.29 in 10.0 mi North 3.5 mph - N/A   Clear
2:15 PM 77.0 °F 46.4 °F 34% 30.29 in 10.0 mi Calm Calm - N/A   Clear
2:35 PM 78.8 °F 46.4 °F 32% 30.28 in 10.0 mi NNE 4.6 mph - N/A   Clear
2:55 PM 78.8 °F 46.4 °F 32% 30.27 in 10.0 mi NE 5.8 mph - N/A   Clear
3:15 PM 78.8 °F 46.4 °F 32% 30.27 in 10.0 mi NNW 3.5 mph - N/A   Clear
3:35 PM 78.8 °F 46.4 °F 32% 30.26 in 10.0 mi NNW 3.5 mph - N/A   Clear
3:55 PM 78.8 °F 46.4 °F 32% 30.26 in 10.0 mi Calm Calm - N/A   Clear
4:15 PM 80.6 °F 48.2 °F 32% 30.26 in 10.0 mi NNE 4.6 mph - N/A   Clear
4:35 PM 78.8 °F 46.4 °F 32% 30.25 in 10.0 mi North 3.5 mph - N/A   Clear
4:55 PM 78.8 °F 46.4 °F 32% 30.25 in 10.0 mi Calm Calm - N/A   Clear
5:15 PM 80.6 °F 48.2 °F 32% 30.25 in 10.0 mi NE 4.6 mph - N/A   Clear
5:35 PM 80.6 °F 48.2 °F 32% 30.25 in 10.0 mi Calm Calm - N/A   Clear
5:55 PM 78.8 °F 48.2 °F 34% 30.25 in 10.0 mi NE 6.9 mph - N/A   Clear
6:15 PM 78.8 °F 48.2 °F 34% 30.25 in 10.0 mi NE 6.9 mph - N/A   Clear
6:35 PM 78.8 °F 48.2 °F 34% 30.25 in 10.0 mi ENE 5.8 mph - N/A   Clear
6:55 PM 77.0 °F 50.0 °F 39% 30.25 in 10.0 mi Calm Calm - N/A   Clear
7:15 PM 73.4 °F 51.8 °F 47% 30.26 in 10.0 mi ENE 3.5 mph - N/A   Clear
7:35 PM 71.6 °F 51.8 °F 50% 30.26 in 10.0 mi Calm Calm - N/A   Clear
7:55 PM 71.6 °F 51.8 °F 50% 30.27 in 10.0 mi Calm Calm - N/A   Clear
8:15 PM 69.8 °F 53.6 °F 56% 30.27 in 10.0 mi Calm Calm - N/A   Clear
8:35 PM 68.0 °F 53.6 °F 60% 30.28 in 10.0 mi Calm Calm - N/A   Clear
8:55 PM 68.0 °F 53.6 °F 60% 30.29 in 10.0 mi ENE 3.5 mph - N/A   Clear
9:15 PM 68.0 °F 53.6 °F 60% 30.29 in 10.0 mi ENE 3.5 mph - N/A   Clear
9:35 PM 66.2 °F 53.6 °F 64% 30.30 in 10.0 mi Calm Calm - N/A   Clear
9:55 PM 64.4 °F 53.6 °F 68% 30.30 in 10.0 mi Calm Calm - N/A   Clear
10:15 PM 62.6 °F 53.6 °F 72% 30.30 in 10.0 mi Calm Calm - N/A   Clear
10:35 PM 62.6 °F 53.6 °F 72% 30.30 in 10.0 mi Calm Calm - N/A   Clear
10:55 PM 60.8 °F 55.4 °F 82% 30.30 in 10.0 mi Calm Calm - N/A   Clear
11:15 PM 60.8 °F 55.4 °F 82% 30.30 in 10.0 mi Calm Calm - N/A   Clear
11:35 PM 59.0 °F 57.2 °F 94% 30.31 in 10.0 mi Calm Calm - N/A   Clear
11:55 PM 59.0 °F 55.4 °F 88% 30.31 in 10.0 mi Calm Calm - N/A   Clear